Regional Weather Roundup
Issued by NWS Goodland, KS

Home | Current Version | Previous Version | Graphics & Text | Print | Product List | Glossary On
Versions: 1 2 3 4 5 6 7 8 9 10 11 12 13 14 15 16 17 18 19 20 21 22 23 24 25 26 27 28 29 30 31 32 33 34 35 36 37 38 39 40 41 42 43 44 45 46 47 48 49 50
000
ASUS43 KGLD 040559
RWRGLD

GOODLAND FORECAST AREA HOURLY WEATHER ROUNDUP
NATIONAL WEATHER SERVICE GOODLAND KS
1200 AM MDT FRI SEP 04 2015

...OFFICIAL OBSERVATIONS...

CITY           SKY/WX    TMP DP  RH WIND       PRES   REMARKS
GOODLAND KS    MOCLDY    69  55  60 NW6       29.86S
HILL CITY KS   MOCLDY    83  59  44 S14G21    29.80S
IMPERIAL NEB   CLOUDY    68  63  84 CALM      29.83S
MCCOOK NEB     CLOUDY    82  59  45 S6        29.80F
AKRON CO       MOCLDY    63  51  65 W8        29.94F
BURLINGTON CO  PTCLDY    67  51  56 NW10      29.91F
LIMON CO       PTCLDY    58  52  80 NW7       30.00S
$$

...UNOFFICIAL OBSERVATIONS...

CITY           SKY/WX    TMP DP  RH WIND       PRES   REMARKS
COLBY KS       CLEAR     79  61  53 W6        29.84R
GOVE KS          N/A     82  32  16 MISG        N/A
LENORA KS        N/A     82  32  16 MISG        N/A
NORTON KS      CLEAR     79  54  41 SE6       29.79S
SHARON SPRINGS   N/A     77  56  48 S12         N/A
TRENTON NEB      N/A     70  32  24 N9          N/A
KIT CARSON CO    N/A     69  53  57 MISG        N/A
YUMA CO          N/A     65  55  69 NW5         N/A
$$



USA.gov is the U.S. government's official web portal to all federal, state and local government web resources and services.